[[{"header":{"parameterUnit":"m.s-1","parameterCategory":1,"la1":30.2991,"la2":30.254,"lo1":-89.0895,"lo2":-89.0444,"dy":0.0017,"dx":0.0017,"nx":28,"ny":28,"refTime":"2025-11-25T09:00:00:Z","depth":0,"parameterNumber":2,"parameterNumberName":"U-component_of_WINDS"},"data":[0,0,0,0,0,0,0,0,0,0,0,0,0,0,0,0,0,0,0,0,0,0,0,0,0,0,0,0,0,0,0,0,0,0,0,0,0,0,0,0,0,0,0,0,0,0,0,0,0,0,0,0,0,0,0,0,0,0,-0.674,-0.674,0,-0.6743,-0.6743,-0.6743,-0.675,-0.675,-0.675,-0.675,-0.6753,-0.6753,-0.6753,0,0,0,0,0,0,0,0,0,0,0,0,0,-0.6739,-0.6739,-0.674,-0.674,-0.674,-0.6743,-0.6743,-0.6743,-0.675,-0.675,-0.675,-0.675,-0.6753,-0.6753,-0.6753,0,0,0,0,0,0,0,0,0,0,0,0,0,-0.6741,-0.6739,-0.674,-0.6744,-0.6744,-0.6743,-0.6743,-0.6743,-0.675,-0.675,-0.675,-0.675,-0.6753,-0.6753,-0.6753,-0.6749,0,0,-0.6753,-0.6753,0,0,0,0,0,0,0,0,-0.6741,-0.6741,-0.6743,-0.6743,-0.6744,-0.6746,-0.6744,-0.6745,-0.675,-0.6748,-0.675,-0.675,-0.6751,-0.6751,-0.6751,-0.6749,-0.6749,-0.6753,-0.6753,-0.6753,-0.6753,0,0,0,0,0,0,0,-0.6741,-0.6741,-0.6741,-0.6743,-0.6743,-0.6745,-0.6746,-0.6744,-0.6748,-0.6748,-0.6748,-0.6749,-0.6751,-0.6751,-0.6751,-0.6749,-0.6753,-0.6753,-0.6753,-0.6753,-0.6743,-0.6743,0,0,0,0,0,0,-0.674,-0.6741,-0.6741,-0.6741,-0.6743,-0.6745,-0.6745,-0.6745,-0.6748,-0.6749,-0.6748,-0.6749,-0.6751,-0.6751,-0.6751,-0.6746,-0.6753,-0.6753,-0.6753,-0.6744,-0.6743,-0.6743,0,0,0,0,0,0,-0.674,-0.674,-0.6741,-0.6741,-0.6741,-0.6745,-0.6744,-0.6745,-0.6745,-0.6748,-0.6749,-0.6748,-0.6751,-0.6751,-0.6749,-0.6746,-0.6753,-0.6753,-0.6744,-0.6743,-0.6743,-0.6736,0,0,0,0,0,0,-0.674,-0.674,-0.6738,-0.6741,-0.6741,-0.6739,-0.6744,-0.6745,-0.6745,-0.6746,-0.6748,-0.6749,-0.6751,-0.6749,-0.6749,-0.6746,-0.6753,-0.6744,-0.6744,-0.6743,-0.6736,-0.6735,-0.6735,0,0,0,0,0,-0.674,-0.6736,-0.6738,-0.6738,-0.6739,-0.6739,-0.6739,-0.6742,-0.6745,-0.6743,-0.6745,-0.6749,-0.6747,-0.6749,-0.6749,-0.6746,-0.6744,-0.6744,-0.6743,-0.6737,-0.6736,-0.6735,0,0,0,0,0,0,-0.6733,-0.6736,-0.6739,-0.6736,-0.6737,-0.674,-0.6738,-0.6741,-0.6741,-0.6742,-0.6746,-0.6746,-0.6743,-0.6745,-0.6747,-0.6742,-0.6746,-0.6746,-0.6741,-0.674,-0.6739,-0.6739,-0.6753,0,0,0,0,0,-0.6731,-0.673,-0.6733,-0.673,-0.6731,-0.6734,-0.6734,-0.6737,-0.6738,-0.6738,-0.674,-0.6741,-0.6741,-0.6741,-0.674,-0.6737,-0.6737,-0.6735,-0.6734,-0.6733,-0.6732,-0.673,-0.6729,-0.6741,-0.6741,-0.6742,0,0,-0.6727,-0.6729,-0.6728,-0.6729,-0.673,-0.6729,-0.6735,-0.6733,-0.6733,-0.6738,-0.6736,-0.6738,-0.6739,-0.6736,-0.6735,-0.6737,-0.6729,-0.6732,-0.6732,-0.6732,-0.673,-0.6729,-0.6728,-0.6741,-0.6741,-0.6741,0,0,-0.6719,-0.6721,-0.6718,-0.6719,-0.6721,-0.6723,-0.6723,-0.6725,-0.6727,-0.6725,-0.6729,-0.6728,-0.6727,-0.6728,-0.6729,-0.6721,-0.6724,-0.6721,-0.6716,-0.6714,-0.6713,-0.6712,-0.6709,-0.6708,-0.6721,-0.6721,-0.6721,0,-0.6714,-0.6713,-0.6717,-0.6715,-0.6716,-0.6721,-0.6718,-0.6719,-0.672,-0.6721,-0.6723,-0.6722,-0.6724,-0.6721,-0.6719,-0.6719,-0.6719,-0.6721,-0.6713,-0.6712,-0.6711,-0.6709,-0.6708,-0.672,-0.672,-0.672,-0.672,0,-0.6707,-0.6706,-0.6704,-0.6705,-0.6705,-0.6703,-0.6706,-0.6706,-0.6709,-0.6711,-0.6709,-0.6711,-0.6711,-0.671,-0.6713,-0.6708,-0.6709,-0.6712,-0.6716,-0.671,-0.6707,-0.6706,-0.672,-0.672,-0.672,-0.672,0,0,-0.6694,-0.6698,-0.6697,-0.6698,-0.67,-0.6699,-0.6698,-0.6698,-0.6698,-0.6698,-0.6697,-0.6696,-0.6699,-0.67,-0.6702,-0.6701,-0.6694,-0.6704,-0.6704,-0.6702,-0.6689,-0.6687,-0.6685,-0.6697,-0.6696,-0.6696,-0.6689,0,-0.6687,-0.6684,-0.6688,-0.6684,-0.6683,-0.6688,-0.6687,-0.6688,-0.669,-0.6689,-0.6691,-0.6691,-0.6695,-0.6695,-0.6693,-0.6695,-0.6692,-0.6696,-0.6695,-0.6695,-0.6694,-0.6684,-0.6682,-0.6674,-0.6688,-0.6688,-0.6688,0,-0.6678,-0.6679,-0.6675,-0.6678,-0.6677,-0.6676,-0.6677,-0.6676,-0.6677,-0.6679,-0.6679,-0.6683,-0.6681,-0.6685,-0.6683,-0.6686,-0.6686,-0.6687,-0.6686,-0.6686,-0.6691,-0.6683,-0.6672,-0.6671,-0.6686,-0.6686,-0.6687,0,-0.6669,-0.6669,-0.6667,-0.6668,-0.667,-0.6669,-0.667,-0.6672,-0.6672,-0.6673,-0.6673,-0.6673,-0.6673,-0.6673,-0.6676,-0.6679,-0.6674,-0.6678,-0.6675,-0.6674,-0.6673,-0.6673,-0.6661,-0.6673,-0.6673,-0.6673,-0.6673,0,-0.6661,-0.6658,-0.6663,-0.6662,-0.6659,-0.6663,-0.6661,-0.6662,-0.6664,-0.6663,-0.6667,-0.6666,-0.667,-0.6669,-0.6672,-0.6669,-0.667,-0.6671,-0.6671,-0.667,-0.667,-0.667,-0.667,-0.6673,-0.6673,-0.6673,-0.6673,0,-0.6651,-0.6654,-0.6652,-0.6655,-0.6655,-0.6653,-0.6656,-0.6654,-0.6657,-0.6655,-0.6655,-0.6658,-0.6658,-0.6661,-0.6661,-0.6663,-0.6659,-0.6661,-0.6659,-0.6659,-0.6655,-0.6656,-0.6643,-0.6642,-0.6655,-0.6654,-0.6654,0,-0.6645,-0.6643,-0.6646,-0.6645,-0.6646,-0.6646,-0.6646,-0.665,-0.6649,-0.6651,-0.6649,-0.6649,-0.6649,-0.6648,-0.6651,-0.6651,-0.6652,-0.6648,-0.6652,-0.6651,-0.6652,-0.6652,-0.6651,-0.6647,-0.6647,-0.6646,-0.6646,0,-0.6634,-0.6636,-0.6636,-0.6636,-0.6636,-0.6636,-0.6637,-0.6637,-0.6641,-0.664,-0.664,-0.664,-0.664,-0.664,-0.664,-0.6641,-0.6644,-0.6645,-0.6644,-0.6643,-0.6642,-0.6642,-0.6656,-0.6645,-0.6645,-0.6645,-0.6645,-0.6645,-0.6626,-0.6625,-0.6626,-0.6626,-0.6627,-0.6627,-0.6626,-0.6628,-0.6628,-0.6628,-0.6631,-0.663,-0.6631,-0.6632,-0.6633,-0.6632,-0.6634,-0.6633,-0.6633,-0.6632,-0.6632,-0.6642,-0.6632,-0.6632,-0.6632,-0.6633,-0.6633,0,-0.6616,-0.6617,-0.6616,-0.6617,-0.6617,-0.662,-0.6621,-0.6621,-0.662,-0.6621,-0.6621,-0.662,-0.662,-0.6622,-0.6622,-0.6621,-0.6623,-0.6621,-0.6621,-0.6621,-0.663,-0.6631,-0.662,-0.662,-0.662,-0.662,-0.662,-0.662,-0.661,-0.6608,-0.661,-0.6608,-0.6609,-0.6608,-0.6608,-0.6609,-0.661,-0.6609,-0.6609,-0.661,-0.6612,-0.6612,-0.6612,-0.6612,-0.6612,-0.661,-0.6611,-0.6619,-0.6621,-0.6622,-0.6622,-0.661,-0.661,-0.6602,-0.6602,-0.6602]},{"header":{"parameterUnit":"m.s-1","parameterCategory":1,"la1":30.2991,"la2":30.254,"lo1":-89.0895,"lo2":-89.0444,"dy":0.0017,"dx":0.0017,"nx":28,"ny":28,"refTime":"2025-11-25T09:00:00:Z","depth":0,"parameterNumber":3,"parameterNumberName":"V-component_of_WINDS"},"data":[0,0,0,0,0,0,0,0,0,0,0,0,0,0,0,0,0,0,0,0,0,0,0,0,0,0,0,0,0,0,0,0,0,0,0,0,0,0,0,0,0,0,0,0,0,0,0,0,0,0,0,0,0,0,0,0,0,0,4.1296,4.1297,0,4.1342,4.1342,4.1343,4.1324,4.1323,4.1322,4.1321,4.1369,4.1371,4.1374,0,0,0,0,0,0,0,0,0,0,0,0,0,4.1197,4.1199,4.1296,4.1297,4.1297,4.1342,4.1342,4.1343,4.1324,4.1323,4.1322,4.1321,4.1368,4.1371,4.1374,0,0,0,0,0,0,0,0,0,0,0,0,0,4.1241,4.1199,4.1296,4.1294,4.1294,4.1341,4.1342,4.1343,4.1325,4.1323,4.1321,4.132,4.1367,4.1371,4.1374,4.1428,0,0,4.1385,4.1386,0,0,0,0,0,0,0,0,4.1238,4.1245,4.1293,4.1294,4.1294,4.1326,4.1325,4.1371,4.1325,4.1313,4.1321,4.1319,4.1356,4.136,4.1372,4.143,4.1432,4.1385,4.1387,4.1388,4.1389,0,0,0,0,0,0,0,4.1235,4.1243,4.1314,4.1294,4.1295,4.1291,4.1296,4.1334,4.1343,4.1314,4.1313,4.1318,4.1356,4.1369,4.1373,4.1433,4.1385,4.1388,4.139,4.1391,4.154,4.1542,0,0,0,0,0,0,4.1232,4.124,4.1313,4.1316,4.1262,4.1294,4.1299,4.1317,4.1343,4.1345,4.132,4.1317,4.1364,4.1369,4.1375,4.1442,4.1388,4.1392,4.1394,4.1538,4.154,4.1542,0,0,0,0,0,0,4.123,4.1239,4.1311,4.1278,4.1287,4.1298,4.1318,4.1319,4.1332,4.1347,4.1349,4.1331,4.1363,4.137,4.1415,4.1443,4.1393,4.1396,4.1536,4.1539,4.1541,4.1574,0,0,0,0,0,0,4.1227,4.1238,4.1258,4.1278,4.1288,4.135,4.132,4.1321,4.1338,4.1335,4.1358,4.136,4.1362,4.141,4.1419,4.1447,4.1399,4.1533,4.1537,4.154,4.1571,4.1578,4.1584,0,0,0,0,0,4.1224,4.1265,4.1259,4.1268,4.1313,4.1351,4.1357,4.1358,4.134,4.1361,4.1371,4.136,4.1438,4.1415,4.1424,4.1454,4.1532,4.1536,4.154,4.1568,4.1576,4.1584,0,0,0,0,0,0,4.1247,4.1267,4.1261,4.131,4.1329,4.1348,4.1374,4.1367,4.1392,4.1388,4.1389,4.1394,4.1442,4.1452,4.1426,4.1509,4.1482,4.1489,4.15,4.1509,4.1515,4.1512,4.1402,0,0,0,0,0,4.1258,4.1287,4.1303,4.1344,4.1355,4.1363,4.1379,4.1378,4.1399,4.1407,4.142,4.1441,4.147,4.149,4.1517,4.1572,4.1578,4.1597,4.1603,4.1609,4.1615,4.1647,4.1657,4.1556,4.1556,4.1556,0,0,4.1281,4.1295,4.1313,4.135,4.1364,4.1396,4.137,4.1403,4.1427,4.1412,4.1456,4.1467,4.149,4.1541,4.1563,4.1551,4.1644,4.1614,4.1618,4.1622,4.1653,4.1662,4.1671,4.1559,4.1558,4.1558,0,0,4.1339,4.1351,4.1389,4.1405,4.1427,4.1433,4.1442,4.1463,4.1469,4.1513,4.1504,4.1532,4.1582,4.16,4.1616,4.1683,4.1675,4.1692,4.1727,4.1758,4.1766,4.1774,4.18,4.1809,4.1697,4.1698,4.1698,0,4.1364,4.141,4.1409,4.1444,4.1461,4.145,4.1489,4.1504,4.1535,4.1548,4.1533,4.1598,4.1612,4.1668,4.1685,4.1697,4.1709,4.169,4.1765,4.1772,4.1779,4.1804,4.1814,4.17,4.1699,4.1699,4.1699,0,4.1442,4.1474,4.1501,4.1532,4.1552,4.1589,4.1595,4.1616,4.1614,4.1621,4.1668,4.1685,4.1717,4.173,4.1728,4.1787,4.1779,4.1764,4.1738,4.1791,4.1815,4.1824,4.1703,4.1702,4.1701,4.1701,0,0,4.1516,4.1546,4.1557,4.1572,4.1597,4.1622,4.1659,4.1691,4.171,4.1732,4.1765,4.1809,4.1796,4.1814,4.1814,4.1841,4.1897,4.1824,4.1825,4.1839,4.1966,4.1978,4.1989,4.1891,4.1893,4.1894,4.1965,0,4.1577,4.1642,4.1643,4.1703,4.1734,4.1724,4.1757,4.1777,4.1785,4.1814,4.1823,4.1855,4.1835,4.1846,4.1873,4.1884,4.1923,4.1879,4.1924,4.1925,4.192,4.2001,4.2014,4.208,4.1974,4.1976,4.1977,0,4.1658,4.1683,4.1746,4.177,4.1783,4.1812,4.1842,4.1869,4.1892,4.1897,4.1918,4.1914,4.1954,4.1925,4.1981,4.1952,4.197,4.1979,4.1981,4.1987,4.1955,4.2012,4.2101,4.2111,4.1991,4.199,4.1989,0,4.1709,4.1758,4.1804,4.1816,4.1843,4.1865,4.1877,4.1899,4.1919,4.1945,4.1959,4.199,4.2007,4.2032,4.2038,4.2016,4.2095,4.2066,4.2102,4.2102,4.212,4.2119,4.2216,4.2128,4.2128,4.2128,4.2128,0,4.1779,4.1818,4.1827,4.1855,4.19,4.1902,4.1946,4.1957,4.1977,4.2008,4.2001,4.203,4.2035,4.2066,4.2071,4.2118,4.2125,4.2132,4.2133,4.2134,4.2133,4.2147,4.2143,4.2131,4.213,4.2129,4.2129,0,4.1844,4.1851,4.19,4.1922,4.1928,4.1961,4.1981,4.2008,4.2016,4.2056,4.2065,4.2078,4.2115,4.2122,4.2165,4.2168,4.2226,4.2221,4.2218,4.2219,4.2254,4.2252,4.2365,4.2381,4.2281,4.2282,4.2282,0,4.1889,4.1919,4.1945,4.1966,4.1979,4.2012,4.2032,4.2035,4.2057,4.2087,4.2112,4.2147,4.2176,4.2236,4.225,4.2283,4.2281,4.2318,4.2286,4.2287,4.2285,4.2284,4.2288,4.2325,4.2326,4.2327,4.2328,0,4.1969,4.1972,4.2001,4.2033,4.2058,4.2082,4.2106,4.2123,4.213,4.2155,4.2193,4.2215,4.226,4.2296,4.233,4.2345,4.2339,4.2337,4.2348,4.235,4.2348,4.2353,4.2238,4.2335,4.2334,4.2334,4.2333,4.2333,4.2028,4.2055,4.2079,4.2112,4.2131,4.2154,4.2181,4.2193,4.2224,4.2261,4.2261,4.2302,4.2327,4.2372,4.2389,4.2422,4.2411,4.2425,4.2429,4.2434,4.2438,4.2341,4.2428,4.2428,4.2428,4.2428,4.2427,0,4.211,4.2125,4.2156,4.219,4.2217,4.2208,4.2234,4.2258,4.2294,4.2318,4.2347,4.2391,4.2427,4.2444,4.248,4.2504,4.2502,4.2513,4.2513,4.2517,4.2445,4.2434,4.2514,4.2514,4.2514,4.2514,4.2514,4.2514,4.2156,4.2204,4.2209,4.2266,4.2281,4.2321,4.2338,4.236,4.2378,4.2428,4.2458,4.2469,4.249,4.2528,4.2561,4.2566,4.2581,4.2594,4.2597,4.253,4.2521,4.2513,4.2502,4.2596,4.2597,4.2666,4.2667,4.2668]}]]